sat.trackr.live / text

‹ back to catalog

STARLINK-31258

NORAD 58829 · 2024-017D

PAYLOAD ACTIVE UNKNOWN

§ Identity

Operator
Country
US
Launch date
2024-01-24
Launch site
AFWTR
Launch vehicle
Mass (kg)
RCS (m²)

Purposes: comms

External: N2YO · Heavens-Above · Gunter

§ Orbital elements

Epoch: 2026-09-20T13:56:22.735680Z

Period
93.85 min
Inclination
53.1627°
Eccentricity
0.0001614
Mean motion
15.34395754 rev/d
Perigee alt
461.6 km
Apogee alt
463.8 km
Semi-major
6,840.9 km
B*
3.2826e-5
RAAN
17.0396°
Arg perigee
26.6876°
Mean anomaly
333.4210°
Rev number
14,992

§ Raw data

STARLINK-312581 58829U 24017D   26263.58081870  .00000733  00000+0  32826-4 0  99992 58829  53.1627  17.0396 0001614  26.6876 333.4210 15.34395754149928

JSON: /api/v1/satellites/58829 · /tle

For live sub-satellite position, see the globe view (requires WebGL).

§ Visibility from observer

Set your observer location to see the next 7 days of passes ≥ 10°. The values pass through the URL so the page stays shareable.

No JS? Fill the form by hand. The geolocation button needs JavaScript.